Hourly Data Report for October 02, 2015

All times are specified in Local Standard Time (LST). Add 1 hour to adjust for Daylight Saving Time where and when it is observed.

SAINT JOHN A
NEW BRUNSWICK

45°18'58.000" N
65°53'24.000" W
108.80 m
8104901
71609
YSJ

Download Data

Hourly Data (October 2015)
Hourly Data Report for October 2, 2015
Temp Definition
°C
Dew Point Temp Definition
°C
Rel Hum Definition
%
Wind Dir Definition
10's deg

Wind Spd Definition
km/h
Visibility Definition
km
Stn Press Definition
kPa
Hmdx Definition


Wind Chill Definition


Weather Definition


TIME
00:00 Legend Double Dagger 8.3 5.8 84 2 11 24.1 101.20     LegendNANA
01:00 Legend Double Dagger 8.2 5.5 83 2 20 24.1 101.18     LegendNANA
02:00 Legend Double Dagger 8.1 6.1 87 2 10 24.1 101.23     Cloudy
03:00 Legend Double Dagger 8.1 6.4 89 2 12 24.1 101.17     LegendNANA
04:00 Legend Double Dagger 7.9 5.7 86 2 18 24.1 101.13     LegendNANA
05:00 Legend Double Dagger 7.8 6.0 88 3 17 24.1 101.18     Cloudy
06:00 Legend Double Dagger 7.8 6.3 90 2 17 24.1 101.16     LegendNANA
07:00 Legend Double Dagger 7.7 6.3 91 1 26 24.1 101.23     LegendNANA
08:00 Legend Double Dagger 7.9 6.5 91 2 22 24.1 101.29     Cloudy
09:00 Legend Double Dagger 9.8 7.2 84 1 30 24.1 101.25     LegendNANA
10:00 Legend Double Dagger 9.5 7.1 85 36 27 24.1 101.31     LegendNANA
11:00 Legend Double Dagger 10.1 6.8 80 3 26 24.1 101.30     Cloudy
12:00 Legend Double Dagger 10.0 6.9 81 1 32 24.1 101.37     LegendNANA
13:00 Legend Double Dagger 10.2 6.6 78 2 30 24.1 101.36     LegendNANA
14:00 Legend Double Dagger 11.2 7.5 78 1 29 24.1 101.34     Mostly Cloudy
15:00 Legend Double Dagger 9.5 7.8 89 35 25 4.8 101.43     Rain Showers,Fog
16:00 Legend Double Dagger 9.4 8.5 94 1 21 24.1 101.42     LegendNANA
17:00 Legend Double Dagger 9.2 7.8 91 2 18 24.1 101.44     Cloudy
18:00 Legend Double Dagger 9.0 7.1 88 1 23 24.1 101.50     LegendNANA
19:00 Legend Double Dagger 8.8 7.1 89 1 21 24.1 101.56     LegendNANA
20:00 Legend Double Dagger 8.4 6.9 90 1 26 24.1 101.55     Cloudy
21:00 Legend Double Dagger 8.2 6.8 91 2 25 24.1 101.62     LegendNANA
22:00 Legend Double Dagger 8.0 6.5 90 1 28 24.1 101.60     LegendNANA
23:00 Legend Double Dagger 7.5 6.1 91 1 35 12.9 101.60     Cloudy

Notes on Data Quality.

Legend

  • E = Estimated
  • M = Missing
  • NA = Not Available
  • ‡ = Partner data that is not subject to review by the National Climate Archives
Date modified: